BCS460 LIMC-LEBL

Flight info

Callsign BCS460
Flight time 1h 22m
Altitude 29000
Route DOGUB6TXNEDED6I/35R NEDED DCT GEKBA DCT VAMTU DCT KOLON DCT GANGU DCT PADKO DCT DIVKO DCT NILDU DCT BISBA
Aircraft B738/M-SDE2E3FGHIRWXY/LB1

Departure

Time 2026-05-05 21:25
Airport Milan Malpensa International Airport (LIMC)

Arrival

Time 2026-05-05 22:47
Airport Josep Tarradellas Barcelona-El Prat Airport (LEBL)
Time Latitude Longitude Altitude Speed Heading
2026-05-05 19:37 45.61559 8.71970 757 ft 0 kts 259°
2026-05-05 20:55 45.61560 8.71977 759 ft 3 kts 259°
2026-05-05 20:55 45.61564 8.72003 753 ft 3 kts 259°
2026-05-05 20:55 45.61567 8.72029 753 ft 3 kts 259°
2026-05-05 20:55 45.61571 8.72056 755 ft 3 kts 259°
2026-05-05 20:56 45.61575 8.72082 754 ft 3 kts 248°
2026-05-05 20:56 45.61585 8.72104 755 ft 3 kts 216°
2026-05-05 20:56 45.61601 8.72115 754 ft 3 kts 184°
2026-05-05 20:56 45.61620 8.72114 755 ft 2 kts 174°
2026-05-05 20:57 45.61621 8.72113 755 ft 0 kts 174°
2026-05-05 21:05 45.61617 8.72115 754 ft 3 kts 165°
2026-05-05 21:05 45.61556 8.72134 755 ft 15 kts 169°
2026-05-05 21:05 45.61438 8.72167 758 ft 18 kts 169°
2026-05-05 21:06 45.61318 8.72201 755 ft 17 kts 168°
2026-05-05 21:06 45.61203 8.72234 758 ft 17 kts 168°
2026-05-05 21:06 45.61091 8.72265 756 ft 16 kts 170°
2026-05-05 21:06 45.60984 8.72293 755 ft 15 kts 170°
2026-05-05 21:07 45.60882 8.72320 755 ft 15 kts 169°
2026-05-05 21:07 45.60783 8.72349 755 ft 14 kts 168°
2026-05-05 21:07 45.60680 8.72391 755 ft 16 kts 148°
2026-05-05 21:07 45.60637 8.72534 757 ft 16 kts 96°
2026-05-05 21:08 45.60626 8.72687 759 ft 15 kts 95°
2026-05-05 21:08 45.60617 8.72834 759 ft 15 kts 96°
2026-05-05 21:08 45.60606 8.72976 757 ft 14 kts 97°
2026-05-05 21:08 45.60596 8.73111 756 ft 13 kts 95°
2026-05-05 21:09 45.60606 8.73231 756 ft 13 kts 37°
2026-05-05 21:09 45.60680 8.73303 757 ft 13 kts 26°
2026-05-05 21:09 45.60761 8.73348 756 ft 12 kts 21°
2026-05-05 21:09 45.60839 8.73392 758 ft 12 kts 21°
2026-05-05 21:10 45.60920 8.73403 756 ft 12 kts 353°
2026-05-05 21:10 45.60974 8.73390 755 ft 7 kts 350°
2026-05-05 21:10 45.61019 8.73378 756 ft 7 kts 348°
2026-05-05 21:10 45.61062 8.73365 756 ft 3 kts 349°
2026-05-05 21:11 45.61077 8.73361 757 ft 0 kts 348°
2026-05-05 21:14 45.61082 8.73359 758 ft 3 kts 348°
2026-05-05 21:14 45.61129 8.73346 758 ft 10 kts 349°
2026-05-05 21:14 45.61197 8.73327 755 ft 10 kts 349°
2026-05-05 21:14 45.61265 8.73309 756 ft 11 kts 349°
2026-05-05 21:15 45.61352 8.73284 757 ft 14 kts 349°
2026-05-05 21:15 45.61443 8.73259 755 ft 13 kts 349°
2026-05-05 21:15 45.61531 8.73236 756 ft 13 kts 349°
2026-05-05 21:15 45.61578 8.73224 759 ft 6 kts 356°
2026-05-05 21:16 45.61612 8.73256 756 ft 6 kts 64°
2026-05-05 21:16 45.61621 8.73304 757 ft 0 kts 80°
2026-05-05 21:17 45.61622 8.73305 757 ft 0 kts 80°
2026-05-05 21:17 45.61625 8.73329 758 ft 7 kts 74°
2026-05-05 21:17 45.61636 8.73410 757 ft 8 kts 90°
2026-05-05 21:18 45.61633 8.73429 757 ft 0 kts 108°
2026-05-05 21:20 45.61633 8.73430 757 ft 1 kts 108°
2026-05-05 21:21 45.61611 8.73486 755 ft 11 kts 120°
2026-05-05 21:21 45.61588 8.73568 757 ft 9 kts 98°
2026-05-05 21:21 45.61587 8.73578 755 ft 0 kts 92°
2026-05-05 21:23 45.61587 8.73581 756 ft 3 kts 92°
2026-05-05 21:23 45.61597 8.73672 756 ft 9 kts 68°
2026-05-05 21:23 45.61646 8.73725 758 ft 9 kts
2026-05-05 21:24 45.61662 8.73724 758 ft 0 kts 354°
2026-05-05 21:24 45.61678 8.73721 758 ft 8 kts 349°
2026-05-05 21:24 45.61786 8.73691 758 ft 35 kts 349°
2026-05-05 21:25 45.62347 8.73535 760 ft 125 kts 348°
2026-05-05 21:25 45.63436 8.73218 926 ft 183 kts 347°
2026-05-05 21:25 45.64664 8.72784 2044 ft 185 kts 345°
2026-05-05 21:25 45.65926 8.72326 2987 ft 193 kts 349°
2026-05-05 21:26 45.67325 8.72301 3340 ft 213 kts
2026-05-05 21:26 45.68874 8.72406 3545 ft 231 kts
2026-05-05 21:26 45.70513 8.72468 3931 ft 239 kts
2026-05-05 21:26 45.72170 8.72226 4427 ft 242 kts 338°
2026-05-05 21:27 45.73449 8.70728 4947 ft 241 kts 302°
2026-05-05 21:27 45.73948 8.68486 4985 ft 238 kts 267°
2026-05-05 21:27 45.73586 8.66203 5000 ft 236 kts 245°
2026-05-05 21:27 45.72887 8.64090 5179 ft 231 kts 243°
2026-05-05 21:28 45.72159 8.62024 5678 ft 236 kts 243°
2026-05-05 21:28 45.71400 8.59924 6381 ft 241 kts 239°
2026-05-05 21:28 45.70477 8.57791 6650 ft 264 kts 236°
2026-05-05 21:28 45.69466 8.55539 7239 ft 272 kts 236°
2026-05-05 21:29 45.68418 8.53274 8034 ft 273 kts 230°
2026-05-05 21:29 45.66936 8.51614 8832 ft 272 kts 207°
2026-05-05 21:29 45.65205 8.50509 9631 ft 273 kts 202°
2026-05-05 21:29 45.63415 8.49508 10243 ft 280 kts 201°
2026-05-05 21:30 45.61533 8.48455 10412 ft 302 kts 202°
2026-05-05 21:30 45.59521 8.47305 10589 ft 321 kts 202°
2026-05-05 21:30 45.57419 8.46086 11002 ft 329 kts 202°
2026-05-05 21:30 45.55392 8.44556 11566 ft 332 kts 219°
2026-05-05 21:31 45.53887 8.42076 12200 ft 333 kts 238°
2026-05-05 21:31 45.52778 8.39175 12808 ft 335 kts 242°
2026-05-05 21:31 45.51734 8.36191 13359 ft 338 kts 243°
2026-05-05 21:31 45.50671 8.33195 13851 ft 341 kts 238°
2026-05-05 21:32 45.49090 8.30680 14282 ft 344 kts 216°
2026-05-05 21:32 45.47005 8.29132 14822 ft 343 kts 206°
2026-05-05 21:32 45.44864 8.27647 15368 ft 342 kts 208°
2026-05-05 21:32 45.42751 8.26078 15815 ft 344 kts 209°
2026-05-05 21:33 45.40643 8.24464 16264 ft 345 kts 209°
2026-05-05 21:33 45.38536 8.22824 16710 ft 346 kts 210°
2026-05-05 21:33 45.36427 8.21169 17141 ft 347 kts 210°
2026-05-05 21:33 45.34313 8.19504 17564 ft 348 kts 210°
2026-05-05 21:34 45.32196 8.17834 17970 ft 349 kts 210°
2026-05-05 21:34 45.30073 8.16158 18354 ft 350 kts 210°
2026-05-05 21:34 45.27944 8.14479 18701 ft 350 kts 210°
2026-05-05 21:34 45.25818 8.12802 19085 ft 349 kts 210°
2026-05-05 21:35 45.23690 8.11126 19407 ft 351 kts 210°
2026-05-05 21:35 45.21549 8.09440 19671 ft 353 kts 210°
2026-05-05 21:35 45.19399 8.07748 19967 ft 354 kts 210°
2026-05-05 21:35 45.17242 8.06053 20261 ft 355 kts 209°
2026-05-05 21:36 45.15090 8.04362 20537 ft 356 kts 209°
2026-05-05 21:36 45.12910 8.02651 20825 ft 357 kts 209°
2026-05-05 21:36 45.10740 8.00949 21106 ft 357 kts 209°
2026-05-05 21:36 45.08565 7.99245 21392 ft 357 kts 209°
2026-05-05 21:37 45.06392 7.97545 21670 ft 357 kts 209°
2026-05-05 21:37 45.04209 7.95838 21889 ft 359 kts 209°
2026-05-05 21:37 45.02017 7.94126 22103 ft 361 kts 209°
2026-05-05 21:37 44.99814 7.92407 22334 ft 362 kts 209°
2026-05-05 21:38 44.97612 7.90689 22613 ft 361 kts 209°
2026-05-05 21:38 44.95418 7.88979 22963 ft 359 kts 209°
2026-05-05 21:38 44.93234 7.87279 23281 ft 357 kts 209°
2026-05-05 21:38 44.91062 7.85590 23554 ft 357 kts 209°
2026-05-05 21:39 44.88891 7.83903 23815 ft 355 kts 209°
2026-05-05 21:39 44.86734 7.82228 24096 ft 353 kts 210°
2026-05-05 21:39 44.84586 7.80561 24376 ft 351 kts 210°
2026-05-05 21:39 44.82451 7.78906 24632 ft 350 kts 210°
2026-05-05 21:40 44.80326 7.77261 24899 ft 348 kts 210°
2026-05-05 21:40 44.78211 7.75624 25151 ft 346 kts 210°
2026-05-05 21:40 44.76101 7.73993 25400 ft 345 kts 210°
2026-05-05 21:40 44.74003 7.72372 25665 ft 343 kts 210°
2026-05-05 21:41 44.71946 7.70784 25902 ft 341 kts 210°
2026-05-05 21:41 44.69872 7.69185 26193 ft 339 kts 210°
2026-05-05 21:41 44.67809 7.67595 26430 ft 338 kts 210°
2026-05-05 21:41 44.65750 7.66010 26643 ft 337 kts 210°
2026-05-05 21:42 44.63698 7.64431 26885 ft 335 kts 210°
2026-05-05 21:42 44.61659 7.62863 27136 ft 334 kts 211°
2026-05-05 21:42 44.59626 7.61302 27368 ft 332 kts 211°
2026-05-05 21:42 44.57601 7.59747 27593 ft 331 kts 211°
2026-05-05 21:43 44.55581 7.58198 27873 ft 330 kts 211°
2026-05-05 21:43 44.53578 7.56663 28140 ft 327 kts 211°
2026-05-05 21:43 44.51579 7.55133 28295 ft 328 kts 211°
2026-05-05 21:43 44.49571 7.53596 28413 ft 329 kts 211°
2026-05-05 21:44 44.47561 7.52059 28581 ft 329 kts 211°
2026-05-05 21:44 44.45552 7.50525 28819 ft 327 kts 211°
2026-05-05 21:44 44.43558 7.49003 28974 ft 328 kts 211°
2026-05-05 21:44 44.41552 7.47472 28973 ft 328 kts 211°
2026-05-05 21:45 44.37562 7.44434 28970 ft 326 kts 211°
2026-05-05 21:45 44.33589 7.41419 28964 ft 325 kts 211°
2026-05-05 21:46 44.29621 7.38402 28959 ft 324 kts 212°
2026-05-05 21:46 44.25656 7.35397 28983 ft 326 kts 211°
2026-05-05 21:47 44.21685 7.32394 29000 ft 324 kts 210°
2026-05-05 21:47 44.17760 7.29481 28915 ft 323 kts 211°
2026-05-05 21:48 44.13802 7.26458 29004 ft 325 kts 211°
2026-05-05 21:48 44.09792 7.23416 28989 ft 330 kts 211°
2026-05-05 21:49 44.05744 7.20366 28961 ft 332 kts 211°
2026-05-05 21:49 44.01690 7.17315 28969 ft 330 kts 211°
2026-05-05 21:50 43.97662 7.14295 28968 ft 329 kts 211°
2026-05-05 21:50 43.93637 7.11293 28951 ft 327 kts 211°
2026-05-05 21:51 43.89646 7.08300 28978 ft 326 kts 211°
2026-05-05 21:51 43.85641 7.05303 28956 ft 328 kts 211°
2026-05-05 21:52 43.79595 7.00798 28962 ft 328 kts 211°
2026-05-05 21:53 43.75566 6.97798 28918 ft 329 kts 212°
2026-05-05 21:53 43.73740 6.95952 28945 ft 326 kts 224°
2026-05-05 21:53 43.72211 6.93631 28947 ft 327 kts 230°
2026-05-05 21:54 43.70006 6.88108 28953 ft 332 kts 243°
2026-05-05 21:54 43.68279 6.82174 28971 ft 333 kts 244°
2026-05-05 21:55 43.66560 6.76240 28973 ft 332 kts 244°
2026-05-05 21:55 43.64829 6.70340 28970 ft 331 kts 244°
2026-05-05 21:56 43.63094 6.64475 28944 ft 329 kts 244°
2026-05-05 21:56 43.61363 6.58645 28969 ft 328 kts 244°
2026-05-05 21:57 43.59626 6.52813 28966 ft 329 kts 244°
2026-05-05 21:57 43.57891 6.47003 28948 ft 330 kts 244°
2026-05-05 21:58 43.56120 6.41087 28950 ft 332 kts 243°
2026-05-05 21:58 43.54363 6.35228 28942 ft 333 kts 243°
2026-05-05 21:59 43.52589 6.29326 28944 ft 333 kts 243°
2026-05-05 21:59 43.50812 6.23425 28949 ft 333 kts 243°
2026-05-05 22:00 43.49036 6.17542 28938 ft 333 kts 243°
2026-05-05 22:00 43.47259 6.11666 28941 ft 332 kts 243°
2026-05-05 22:01 43.45479 6.05803 28946 ft 332 kts 243°
2026-05-05 22:01 43.43698 5.99939 28933 ft 333 kts 243°
2026-05-05 22:02 43.41909 5.94056 28933 ft 334 kts 243°
2026-05-05 22:02 43.40110 5.88157 28928 ft 335 kts 243°
2026-05-05 22:03 43.38306 5.82248 28922 ft 335 kts 243°
2026-05-05 22:03 43.36496 5.76337 28921 ft 336 kts 243°
2026-05-05 22:04 43.34683 5.70428 28949 ft 335 kts 242°
2026-05-05 22:04 43.32870 5.64527 28918 ft 335 kts 242°
2026-05-05 22:05 43.31060 5.58655 28926 ft 333 kts 242°
2026-05-05 22:05 43.29258 5.52823 28895 ft 331 kts 242°
2026-05-05 22:06 43.27768 5.48010 28915 ft 329 kts 243°
2026-05-05 22:06 43.25986 5.42258 28902 ft 327 kts 242°
2026-05-05 22:07 43.24202 5.36523 28914 ft 327 kts 242°
2026-05-05 22:07 43.22406 5.30769 28922 ft 330 kts 242°
2026-05-05 22:08 43.20583 5.24972 28917 ft 332 kts 242°
2026-05-05 22:08 43.18750 5.19149 28913 ft 334 kts 242°
2026-05-05 22:09 43.16905 5.13296 28911 ft 335 kts 242°
2026-05-05 22:09 43.15058 5.07450 28911 ft 334 kts 242°
2026-05-05 22:10 43.13212 5.01617 28913 ft 333 kts 242°
2026-05-05 22:10 43.11370 4.95811 28909 ft 331 kts 242°
2026-05-05 22:11 43.09539 4.90048 28927 ft 329 kts 243°
2026-05-05 22:11 43.07718 4.84334 28908 ft 327 kts 243°
2026-05-05 22:12 43.05686 4.78829 28924 ft 322 kts 234°
2026-05-05 22:12 43.02770 4.74208 28917 ft 322 kts 223°
2026-05-05 22:13 42.99406 4.70135 28924 ft 324 kts 222°
2026-05-05 22:13 42.96008 4.66073 28912 ft 326 kts 222°
2026-05-05 22:14 42.92599 4.61987 28896 ft 327 kts 223°
2026-05-05 22:14 42.89195 4.57897 28907 ft 325 kts 223°
2026-05-05 22:15 42.85798 4.53815 28934 ft 326 kts 223°
2026-05-05 22:15 42.82413 4.49752 28920 ft 327 kts 223°
2026-05-05 22:16 42.78993 4.45652 28914 ft 328 kts 223°
2026-05-05 22:16 42.75564 4.41547 28917 ft 329 kts 223°
2026-05-05 22:17 42.72130 4.37443 28915 ft 329 kts 223°
2026-05-05 22:17 42.68693 4.33342 28922 ft 329 kts 223°
2026-05-05 22:18 42.65256 4.29246 28918 ft 328 kts 223°
2026-05-05 22:18 42.61823 4.25161 28925 ft 328 kts 223°
2026-05-05 22:19 42.58390 4.21083 28917 ft 328 kts 223°
2026-05-05 22:19 42.54952 4.17005 28921 ft 330 kts 222°
2026-05-05 22:20 42.51488 4.12903 28913 ft 331 kts 223°
2026-05-05 22:20 42.48022 4.08805 28914 ft 330 kts 223°
2026-05-05 22:21 42.44571 4.04729 28915 ft 328 kts 223°
2026-05-05 22:21 42.41142 4.00687 28914 ft 326 kts 223°
2026-05-05 22:22 42.37724 3.96663 28923 ft 325 kts 223°
2026-05-05 22:22 42.34312 3.92651 28924 ft 325 kts 223°
2026-05-05 22:23 42.30916 3.88664 28913 ft 322 kts 224°
2026-05-05 22:23 42.27628 3.84667 28873 ft 313 kts 230°
2026-05-05 22:23 42.26287 3.82412 28640 ft 305 kts 233°
2026-05-05 22:24 42.24975 3.80124 28208 ft 304 kts 233°
2026-05-05 22:24 42.23689 3.77885 27577 ft 307 kts 233°
2026-05-05 22:24 42.22376 3.75602 27064 ft 308 kts 233°
2026-05-05 22:24 42.21078 3.73350 26554 ft 301 kts 232°
2026-05-05 22:25 42.19791 3.71125 25849 ft 301 kts 232°
2026-05-05 22:25 42.18504 3.68902 25113 ft 302 kts 232°
2026-05-05 22:25 42.17213 3.66675 24450 ft 301 kts 232°
2026-05-05 22:25 42.15926 3.64459 23829 ft 299 kts 232°
2026-05-05 22:26 42.14644 3.62255 23155 ft 298 kts 231°
2026-05-05 22:26 42.13373 3.60070 22641 ft 292 kts 232°
2026-05-05 22:26 42.12124 3.57927 22231 ft 290 kts 232°
2026-05-05 22:26 42.10885 3.55800 21851 ft 288 kts 231°
2026-05-05 22:27 42.09653 3.53689 21483 ft 286 kts 231°
2026-05-05 22:27 42.08429 3.51592 21117 ft 284 kts 231°
2026-05-05 22:27 42.07213 3.49510 20764 ft 282 kts 231°
2026-05-05 22:27 42.06003 3.47441 20410 ft 281 kts 231°
2026-05-05 22:28 42.04797 3.45380 20061 ft 280 kts 231°
2026-05-05 22:28 42.03596 3.43328 19716 ft 279 kts 231°
2026-05-05 22:28 42.02399 3.41285 19372 ft 278 kts 231°
2026-05-05 22:28 42.01204 3.39246 19030 ft 278 kts 231°
2026-05-05 22:29 42.00008 3.37208 18680 ft 278 kts 231°
2026-05-05 22:29 41.98807 3.35163 18331 ft 280 kts 231°
2026-05-05 22:29 41.97589 3.33090 17948 ft 284 kts 231°
2026-05-05 22:29 41.96351 3.30984 17587 ft 291 kts 231°
2026-05-05 22:30 41.95086 3.28836 17220 ft 295 kts 231°
2026-05-05 22:30 41.93813 3.26673 16836 ft 294 kts 231°
2026-05-05 22:30 41.92549 3.24527 16515 ft 291 kts 231°
2026-05-05 22:30 41.91298 3.22405 16162 ft 289 kts 232°
2026-05-05 22:31 41.90057 3.20301 15828 ft 287 kts 232°
2026-05-05 22:31 41.88823 3.18212 15485 ft 285 kts 232°
2026-05-05 22:31 41.87592 3.16128 15151 ft 284 kts 232°
2026-05-05 22:31 41.86370 3.14060 14818 ft 282 kts 232°
2026-05-05 22:32 41.85153 3.12003 14485 ft 281 kts 232°
2026-05-05 22:32 41.83940 3.09953 14160 ft 280 kts 232°
2026-05-05 22:32 41.82730 3.07912 13832 ft 279 kts 232°
2026-05-05 22:32 41.81541 3.05906 13484 ft 278 kts 232°
2026-05-05 22:33 41.80339 3.03878 13136 ft 277 kts 233°
2026-05-05 22:33 41.79141 3.01860 12791 ft 276 kts 233°
2026-05-05 22:33 41.77950 2.99854 12466 ft 274 kts 232°
2026-05-05 22:33 41.76764 2.97859 12150 ft 273 kts 232°
2026-05-05 22:34 41.75586 2.95876 11829 ft 271 kts 232°
2026-05-05 22:34 41.74417 2.93912 11526 ft 269 kts 232°
2026-05-05 22:34 41.73254 2.91960 11211 ft 268 kts 232°
2026-05-05 22:34 41.72095 2.90017 10904 ft 266 kts 233°
2026-05-05 22:35 41.70942 2.88083 10604 ft 265 kts 232°
2026-05-05 22:35 41.69794 2.86158 10302 ft 264 kts 232°
2026-05-05 22:35 41.68652 2.84246 10110 ft 259 kts 232°
2026-05-05 22:35 41.67541 2.82388 9971 ft 254 kts 232°
2026-05-05 22:36 41.66431 2.80531 9758 ft 261 kts 232°
2026-05-05 22:36 41.65273 2.78593 9418 ft 270 kts 232°
2026-05-05 22:36 41.64095 2.76624 9080 ft 271 kts 232°
2026-05-05 22:36 41.62934 2.74686 8758 ft 263 kts 232°
2026-05-05 22:37 41.61795 2.72787 8446 ft 261 kts 232°
2026-05-05 22:37 41.60661 2.70897 8137 ft 260 kts 232°
2026-05-05 22:37 41.59532 2.69015 7830 ft 262 kts 232°
2026-05-05 22:37 41.58377 2.67090 7537 ft 270 kts 232°
2026-05-05 22:38 41.57188 2.65109 7249 ft 276 kts 232°
2026-05-05 22:38 41.55974 2.63090 6963 ft 281 kts 232°
2026-05-05 22:38 41.54746 2.61049 6664 ft 282 kts 232°
2026-05-05 22:38 41.53527 2.59025 6369 ft 278 kts 232°
2026-05-05 22:39 41.52323 2.57027 6050 ft 274 kts 233°
2026-05-05 22:39 41.51134 2.55055 5734 ft 271 kts 233°
2026-05-05 22:39 41.49958 2.53106 5435 ft 268 kts 233°
2026-05-05 22:39 41.48791 2.51172 5139 ft 267 kts 233°
2026-05-05 22:40 41.47627 2.49245 4834 ft 266 kts 233°
2026-05-05 22:40 41.46470 2.47329 4520 ft 262 kts 233°
2026-05-05 22:40 41.45348 2.45476 4202 ft 252 kts 233°
2026-05-05 22:40 41.44266 2.43689 3926 ft 243 kts 233°
2026-05-05 22:41 41.43224 2.41966 3662 ft 236 kts 233°
2026-05-05 22:41 41.42199 2.40273 3419 ft 233 kts 233°
2026-05-05 22:41 41.41199 2.38623 3157 ft 225 kts 233°
2026-05-05 22:41 41.40231 2.37026 2918 ft 217 kts 233°
2026-05-05 22:42 41.39303 2.35496 2689 ft 209 kts 233°
2026-05-05 22:42 41.38404 2.34016 2453 ft 202 kts 234°
2026-05-05 22:42 41.37535 2.32585 2196 ft 196 kts 233°
2026-05-05 22:42 41.36692 2.31201 2030 ft 187 kts 234°
2026-05-05 22:43 41.35927 2.29894 1983 ft 170 kts 242°
2026-05-05 22:43 41.35460 2.28500 2011 ft 163 kts 251°
2026-05-05 22:43 41.34996 2.27127 2003 ft 161 kts 249°
2026-05-05 22:43 41.34538 2.25809 2017 ft 159 kts 250°
2026-05-05 22:44 41.34080 2.24481 1995 ft 154 kts 250°
2026-05-05 22:44 41.33648 2.23225 1987 ft 148 kts 249°
2026-05-05 22:44 41.33224 2.21991 1929 ft 147 kts 249°
2026-05-05 22:44 41.32795 2.20744 1768 ft 148 kts 249°
2026-05-05 22:45 41.32375 2.19521 1554 ft 142 kts 248°
2026-05-05 22:45 41.31984 2.18386 1381 ft 128 kts 248°
2026-05-05 22:45 41.31607 2.17285 1202 ft 131 kts 248°
2026-05-05 22:45 41.31236 2.16204 1025 ft 127 kts 248°
2026-05-05 22:46 41.30876 2.15155 854 ft 122 kts 248°
2026-05-05 22:46 41.30519 2.14113 701 ft 125 kts 250°
2026-05-05 22:46 41.30138 2.13050 487 ft 131 kts 248°
2026-05-05 22:46 41.29757 2.11949 311 ft 129 kts 249°
2026-05-05 22:47 41.29389 2.10842 147 ft 133 kts 248°
2026-05-05 22:47 41.29009 2.09727 26 ft 127 kts 249°
2026-05-05 22:47 41.28699 2.08801 21 ft 97 kts 246°
2026-05-05 22:47 41.28556 2.08361 19 ft 28 kts 255°
2026-05-05 22:48 41.28543 2.08159 18 ft 5 kts 272°
2026-05-05 22:48 41.28548 2.08098 17 ft 8 kts 276°
2026-05-05 22:48 41.28572 2.08026 15 ft 10 kts 315°
2026-05-05 22:48 41.28632 2.08060 16 ft 11 kts 58°
2026-05-05 22:49 41.28663 2.08155 17 ft 10 kts 66°
2026-05-05 22:49 41.28685 2.08204 16 ft 7 kts 49°
2026-05-05 22:49 41.28737 2.08237 15 ft 10 kts 17°
2026-05-05 22:49 41.28813 2.08268 16 ft 12 kts 17°
2026-05-05 22:50 41.28892 2.08304 17 ft 12 kts 21°
2026-05-05 22:50 41.28947 2.08331 17 ft 0 kts 19°
2026-05-05 22:51 41.28958 2.08335 17 ft 6 kts 17°
2026-05-05 22:51 41.29034 2.08369 19 ft 14 kts 19°
2026-05-05 22:52 41.29097 2.08399 18 ft 14 kts 20°
2026-05-05 22:52 41.29189 2.08442 19 ft 14 kts 19°
2026-05-05 22:52 41.29278 2.08438 21 ft 14 kts 327°
2026-05-05 22:52 41.29365 2.08375 18 ft 14 kts 335°
2026-05-05 22:53 41.29454 2.08323 16 ft 14 kts 337°
2026-05-05 22:53 41.29545 2.08271 15 ft 14 kts 336°
2026-05-05 22:53 41.29620 2.08215 15 ft 12 kts 309°
2026-05-05 22:53 41.29612 2.08116 16 ft 11 kts 246°
2026-05-05 22:54 41.29578 2.08013 18 ft 14 kts 246°
2026-05-05 22:54 41.29534 2.07886 16 ft 16 kts 243°
2026-05-05 22:54 41.29483 2.07742 16 ft 18 kts 245°
2026-05-05 22:54 41.29429 2.07582 17 ft 19 kts 246°
2026-05-05 22:55 41.29377 2.07423 16 ft 18 kts 246°
2026-05-05 22:55 41.29334 2.07282 17 ft 13 kts 276°
2026-05-05 22:55 41.29400 2.07208 15 ft 13 kts 336°
2026-05-05 22:55 41.29481 2.07159 16 ft 13 kts 336°
2026-05-05 22:56 41.29560 2.07111 14 ft 13 kts 334°
2026-05-05 22:56 41.29640 2.07059 14 ft 13 kts 326°
2026-05-05 22:56 41.29646 2.06953 16 ft 12 kts 250°
2026-05-05 22:56 41.29623 2.06846 15 ft 12 kts 285°
2026-05-05 22:57 41.29688 2.06779 16 ft 12 kts 330°
2026-05-05 22:57 41.29762 2.06732 19 ft 12 kts 345°
2026-05-05 22:57 41.29833 2.06709 19 ft 6 kts 335°
2026-05-05 22:57 41.29867 2.06689 20 ft 2 kts 336°
2026-05-05 22:58 41.29878 2.06682 20 ft 2 kts 336°
2026-05-05 22:58 41.29879 2.06682 20 ft 0 kts 336°